SCP
0 0 0 0 0 0 0 0 0 0 0 0 0 0 0 0 0 0 0 0 0 0 0 0 0 0 0 0 0 0 0 0 0 0 1 2 2 2 2 1 1 0 0 0
0 0 0 0 0 0 0 0 0 0 0 0 0 0 0 0 0 0 0 0 0 0 0 0 0 0 0 0 0 0 0 0 0 0 1 2 2 2 2 1 1 1 0 0
0 0 0 0 0 0 0 0 0 0 0 0 0 0 0 0 0 0 0 0 0 0 0 0 0 0 0 0 0 0 0 0 0 0 0 1 2 3 2 2 1 1 1 1
0 0 0 0 0 0 0 0 0 0 0 0 0 0 0 0 0 0 0 0 0 0 0 0 0 0 0 0 0 0 0 0 0 0 0 1 2 3 3 2 2 1 1 1
0 0 0 0 0 0 0 0 0 0 0 0 0 0 0 0 0 0 0 0 0 0 0 0 0 0 0 0 0 0 0 0 0 0 0 1 2 3 3 3 2 1 1 1
0 0 0 0 0 0 0 0 0 0 0 0 0 0 0 0 0 0 0 0 0 0 0 0 0 0 0 0 0 0 0 0 0 0 0 1 2 2 2 2 2 1 1 1
0 0 0 0 0 0 0 0 0 0 0 0 0 0 0 0 0 0 0 0 0 0 0 0 0 0 0 0 0 0 0 0 0 0 0 1 1 1 1 1 1 1 1 1
0 0 0 0 0 0 0 0 0 0 0 0 0 0 0 0 0 0 0 0 0 0 0 0 0 0 0 0 0 0 1 0 0 0 0 0 0 0 1 1 1 1 1 1
0 0 0 0 0 0 0 0 0 0 0 0 0 0 0 0 0 0 0 0 0 0 0 0 0 0 0 0 0 1 1 1 0 0 0 0 0 1 1 1 1 1 1 1
0 0 0 0 0 0 0 0 0 0 0 0 0 0 0 0 0 0 0 0 0 0 0 0 0 0 0 0 0 0 1 1 0 0 1 1 1 1 1 2 2 1 1 1
0 0 0 0 0 0 0 0 0 0 0 0 0 0 0 0 0 0 0 0 0 0 0 0 0 0 0 0 0 0 0 0 0 0 1 1 1 1 1 2 2 2 1 1
0 0 0 0 0 0 0 0 0 0 0 0 0 0 0 0 0 0 0 0 0 0 0 0 0 0 0 0 0 0 0 0 0 0 0 1 1 1 2 2 2 1 1 0
0 0 0 0 0 0 0 0 0 0 0 0 0 0 0 0 0 0 0 0 0 0 0 0 0 0 0 0 0 0 0 0 0 0 0 0 1 1 1 1 1 0 0 0
0 0 0 0 0 0 0 0 0 0 0 0 0 0 0 0 0 0 0 0 0 0 0 0 0 0 0 0 0 0 0 0 0 0 0 0 0 1 1 0 0 0 0 0
0 0 0 0 0 0 0 0 0 0 0 0 0 0 0 0 0 0 0 0 0 0 0 0 0 0 0 0 0 0 0 0 0 0 0 0 0 0 0 0 0 0 0 0
0 0 0 0 0 0 0 0 0 0 0 0 0 0 0 0 0 0 0 0 0 0 0 0 0 0 0 0 0 0 0 0 0 0 0 0 0 0 0 0 0 0 0 0
0 0 0 0 0 0 0 0 0 0 0 0 0 0 0 0 0 0 0 0 0 0 0 0 0 0 0 0 0 0 0 0 0 0 0 0 0 0 0 0 0 0 0 0
0 0 0 0 0 0 0 0 0 0 0 0 0 0 0 0 0 0 0 0 0 0 0 0 0 0 0 0 0 0 0 0 0 0 0 0 0 0 0 0 0 0 0 0
0 0 0 0 0 0 0 0 0 0 0 0 0 0 0 0 0 0 0 0 0 0 0 0 0 0 0 0 0 0 0 0 0 0 0 0 0 0 0 0 0 0 0 0
0 0 0 0 0 0 0 0 0 0 0 0 0 0 0 0 0 0 0 0 0 0 0 0 0 0 0 0 0 0 0 0 0 0 0 0 0 0 0 0 0 0 0 0
0 0 0 0 0 0 0 0 0 0 0 0 0 0 0 0 0 0 0 0 0 0 0 0 0 0 0 0 0 0 0 0 0 0 0 0 0 0 0 0 0 0 0 0
0 0 0 0 0 0 0 0 0 0 0 0 0 0 0 0 0 0 0 0 0 0 0 0 0 0 0 0 0 0 0 0 0 0 0 0 0 0 0 0 0 0 0 0
0 0 0 0 0 0 0 0 0 0 0 0 0 0 0 0 0 0 0 0 0 0 0 0 0 0 0 0 0 0 0 0 0 0 0 0 0 0 0 0 0 0 0 0
0 0 0 0 0 0 0 0 0 0 0 0 0 0 0 0 0 0 0 0 0 0 0 0 0 0 0 0 0 0 0 0 0 0 0 0 0 0 0 0 0 0 0 0
0 0 0 0 0 0 0 0 0 0 0 0 0 0 0 0 0 0 0 0 0 0 0 0 0 0 0 0 0 0 0 0 0 0 0 0 0 0 0 0 0 0 0 0
0 0 0 0 0 0 0 0 0 0 0 0 0 0 0 0 0 0 0 0 0 0 0 0 0 0 0 0 0 0 0 0 0 0 0 0 0 0 0 0 0 0 0 0
Wind_Speed
4 4 3 2 2 3 6 5 4 2 2 3 3 2 2 4 4 5 5 5 5 5 6 6 6 6 6 6 5 5 4 4 3 1 1 2 1 1 0 0 1 1 1 2
5 4 3 2 3 5 6 6 4 3 3 2 3 1 2 4 4 4 4 4 5 5 6 7 7 7 6 6 6 5 5 4 3 2 1 1 1 1 1 0 0 1 1 1
6 3 2 4 4 5 3 4 4 4 2 2 1 1 1 2 3 4 4 4 5 5 6 6 7 7 6 6 6 5 5 5 4 3 2 1 0 0 0 1 1 1 2 2
5 4 3 4 3 2 2 1 4 5 4 2 3 3 2 1 2 3 4 5 5 6 6 6 7 7 7 6 6 5 5 4 4 3 2 1 1 1 2 2 1 1 1 2
4 4 4 3 1 1 1 1 3 2 1 2 2 3 2 2 1 1 3 4 5 5 6 6 6 6 7 7 6 6 5 5 5 3 2 1 1 2 2 2 2 2 2 2
4 2 3 3 2 1 2 3 3 1 1 2 2 4 2 2 2 1 2 3 5 5 5 6 6 6 6 7 6 6 5 5 5 4 3 2 2 2 3 3 3 2 2 2
5 4 4 3 2 2 1 3 2 2 2 2 1 4 2 1 1 1 1 3 4 4 5 6 7 7 8 8 7 6 6 6 6 5 4 3 3 3 3 3 3 3 3 3
3 3 5 5 3 1 0 1 1 3 3 1 1 4 1 2 2 2 2 3 4 5 6 6 7 7 7 7 7 7 6 6 5 5 4 4 3 2 2 3 3 3 3 3
1 1 3 4 4 1 1 1 1 1 1 2 3 2 3 1 1 2 2 3 4 5 6 6 6 6 7 7 7 6 6 6 6 5 4 4 4 3 3 4 3 3 3 3
1 0 3 4 1 3 2 1 1 2 3 3 3 4 3 3 2 0 1 2 3 4 5 5 5 6 6 6 6 6 5 5 5 5 5 4 5 4 4 3 4 4 4 4
1 1 2 2 3 2 1 1 0 0 1 3 3 2 0 3 3 2 0 1 2 3 4 4 5 5 5 5 6 6 6 6 6 6 5 5 4 4 4 4 4 4 4 4
2 1 1 1 1 2 1 1 1 2 2 3 3 2 2 1 2 2 1 2 2 3 3 4 4 5 5 6 6 6 6 6 6 6 5 5 5 5 4 4 5 5 4 4
1 0 0 1 2 1 1 1 1 1 1 3 4 3 3 1 1 1 1 1 2 3 3 4 4 5 5 6 6 6 6 6 6 5 5 5 5 5 5 5 5 5 5 4
1 1 1 1 2 2 3 3 3 2 2 3 6 6 4 3 3 3 2 2 2 2 3 4 4 5 5 5 6 6 6 5 5 5 5 5 6 6 5 5 5 5 5 5
1 1 0 3 4 4 5 6 5 5 5 6 5 6 7 5 5 4 3 2 2 2 3 3 4 5 5 6 6 6 6 6 5 5 5 6 6 6 6 6 5 5 5 5
2 1 0 3 2 4 5 8 7 6 6 7 7 8 5 3 2 3 3 3 3 3 3 3 4 5 5 6 6 6 6 6 5 5 5 6 6 6 6 6 6 6 6 6
1 2 0 2 5 4 6 6 7 5 5 6 7 5 2 3 3 4 3 3 3 3 3 3 4 4 5 5 6 6 6 6 5 5 5 6 6 6 6 6 6 6 6 6
2 2 1 2 2 4 2 1 3 5 6 7 7 5 4 4 3 3 3 4 4 3 3 3 3 4 4 5 5 5 5 5 5 5 6 6 6 6 6 6 6 6 5 5
3 3 2 1 2 7 7 3 4 5 6 6 8 7 5 3 2 3 3 4 4 4 3 3 3 4 4 5 5 5 5 5 5 6 6 7 7 6 6 6 6 6 6 6
2 3 2 2 3 6 2 2 1 2 5 4 6 7 5 4 3 3 2 2 2 2 2 2 2 3 3 4 4 4 4 5 5 6 7 7 7 6 6 6 6 6 5 6
3 3 4 5 6 9 4 2 4 4 3 2 6 6 6 6 4 2 1 2 2 2 2 2 2 2 3 3 3 3 4 5 6 6 7 6 6 6 6 6 5 6 5 6
7 7 7 6 6 9 6 7 8 5 0 3 5 5 6 5 4 2 2 3 2 2 2 2 2 3 3 3 3 3 4 5 5 6 6 6 6 5 5 5 5 5 5 5
9 8 6 10 8 2 7 8 4 1 3 3 4 5 5 5 5 4 4 3 3 3 2 2 2 3 2 2 2 3 4 5 5 5 5 5 6 5 5 5 5 5 4 4
6 5 5 8 11 9 9 9 7 6 6 5 5 5 5 6 6 5 4 4 3 3 2 2 2 3 3 3 2 3 4 4 4 5 5 5 5 5 4 4 4 4 4 4
7 8 6 9 9 7 9 12 12 9 8 7 6 6 7 7 7 6 5 4 4 3 2 2 3 4 4 3 3 3 3 3 4 4 4 4 4 4 5 4 4 5 4 5
10 12 11 10 8 7 5 4 7 8 9 8 7 6 5 7 7 5 5 4 4 3 3 3 3 4 4 3 3 3 3 3 3 4 4 3 4 4 4 4 5 5 6 8
Wind_Direction
45 77 101 137 160 125 140 140 134 107 43 62 101 85 26 19 31 35 34 35 33 32 24 22 23 23 26 25 22 19 13 3 357 322 224 206 210 208 196 328 346 314 314 305
93 58 18 73 121 127 134 139 125 97 69 73 108 71 21 30 33 28 30 30 26 23 21 22 22 27 25 22 16 16 13 9 2 346 310 248 222 207 190 156 325 325 317 312
84 39 24 108 113 125 121 155 153 142 109 140 171 187 170 67 50 43 35 27 23 19 13 16 19 20 19 16 7 4 5 7 5 356 355 354 264 230 269 301 293 300 300 302
64 21 74 94 92 169 160 139 153 159 167 161 237 220 203 170 36 30 29 27 21 19 18 17 15 15 14 7 1 4 5 7 8 5 8 18 12 315 293 296 297 310 306 311
65 25 47 75 15 354 104 102 141 167 168 168 222 231 204 184 249 353 16 19 17 17 18 18 15 12 10 7 5 5 10 14 14 13 5 357 347 322 321 321 319 322 323 323
62 36 20 353 339 41 119 114 102 119 198 215 219 230 231 201 243 254 1 19 18 15 15 15 14 13 12 11 10 9 13 15 11 13 12 7 352 347 353 352 347 337 337 340
49 45 21 352 50 71 82 153 147 169 205 218 173 225 238 38 329 289 348 5 15 16 12 9 9 9 7 7 7 6 12 13 9 13 18 12 357 345 342 337 332 330 331 337
66 42 12 4 2 356 136 244 201 201 205 192 216 231 205 44 45 46 38 27 19 16 14 8 5 4 1 2 3 4 6 6 4 8 8 7 5 349 339 338 332 322 322 332
61 48 351 350 343 335 114 93 347 87 91 228 223 245 253 187 75 63 44 29 18 9 6 3 4 3 0 359 360 360 360 1 359 1 360 359 359 355 349 350 340 335 341 339
8 96 343 331 329 47 12 68 190 190 195 228 235 242 233 224 242 310 18 5 356 354 358 359 4 0 358 356 356 358 359 358 355 355 356 355 350 349 347 349 346 344 344 345
2 76 3 17 18 360 44 98 57 164 266 239 242 241 157 214 210 219 264 342 337 345 352 355 355 353 356 358 357 360 0 358 355 353 352 349 345 347 347 347 343 340 337 335
13 34 36 344 317 317 319 313 251 239 226 245 257 259 102 191 184 195 270 336 340 342 349 351 350 354 356 358 358 357 357 358 353 347 346 347 345 345 346 345 340 337 334 334
359 112 110 142 165 66 344 318 300 300 224 224 234 237 130 165 200 232 278 326 338 344 351 354 355 355 355 354 354 352 352 351 347 345 346 349 350 348 346 343 339 339 336 335
60 67 265 271 326 313 286 280 259 230 227 233 240 251 258 269 273 275 270 290 322 343 346 349 350 350 352 350 348 347 348 345 343 346 350 353 350 347 344 342 341 339 335 335
33 139 253 294 297 281 271 266 253 239 240 241 251 258 265 265 261 255 253 266 295 321 330 337 338 341 345 348 348 348 346 346 346 349 353 352 348 346 345 345 343 341 339 337
35 129 306 302 321 307 280 268 250 246 244 243 259 269 276 273 230 227 236 243 264 286 303 319 328 333 337 342 343 346 346 346 349 353 350 346 345 344 344 343 341 340 339 336
100 128 197 283 325 309 273 249 220 223 227 224 240 246 219 213 224 235 235 242 256 272 292 306 314 319 326 334 338 339 337 339 346 347 344 343 341 339 338 336 338 336 332 331
155 124 131 310 345 256 259 94 215 232 246 234 249 251 233 238 243 254 247 242 255 274 291 302 309 317 327 332 332 331 332 338 341 342 340 338 335 332 330 332 332 330 326 321
184 156 141 189 272 279 283 232 205 221 262 233 234 244 246 234 275 258 238 233 250 268 285 295 309 318 324 329 329 329 334 339 340 339 336 333 330 326 326 327 325 325 322 318
139 153 157 175 238 252 263 126 164 198 270 222 211 222 220 188 234 259 200 226 258 277 288 298 312 319 321 326 328 330 333 336 336 332 328 326 324 320 318 317 318 318 315 311
171 178 198 207 240 264 255 164 162 202 268 175 197 206 198 207 245 300 196 235 242 253 273 289 295 301 309 318 323 322 326 328 327 324 322 322 321 316 311 313 316 315 314 313
188 182 192 184 215 252 172 162 198 223 73 182 198 205 207 224 248 251 238 241 239 249 263 268 275 290 310 321 317 312 316 323 327 324 321 320 319 317 317 319 318 318 315 313
213 206 195 201 222 273 178 205 223 218 218 212 209 214 214 223 239 249 252 246 242 245 253 263 269 283 302 319 313 301 313 326 325 321 317 315 318 319 322 320 320 320 320 315
227 206 218 248 257 250 237 241 243 234 235 237 225 222 217 227 239 244 246 247 250 249 248 254 254 265 280 299 303 298 312 322 317 313 314 316 319 323 327 322 319 318 319 318
217 182 210 247 263 275 254 234 235 234 235 237 231 223 221 226 236 238 241 241 243 249 248 240 242 254 268 284 291 305 313 314 307 305 307 313 315 319 319 318 312 312 309 313
199 193 196 227 219 210 232 216 210 213 221 222 219 221 221 219 229 231 236 238 240 244 245 247 251 257 267 274 282 296 305 299 294 299 307 310 312 316 315 316 315 307 307 316